EW9310 Weather Reports


time (UTC)temp
C
wind
direction
speed
KPH
gust
KPH
rain 1hr
cm
rain 24hr
cm
rain mn
cm
humidity
%
barometer
mb
20260507001007 6 246 0.0 3.2 0.00 2.11 1.37 86 1011.2
20260507000507 6 246 0.0 3.2 0.00 2.16 1.37 87 1011.2
20260507000030 6 246 0.0 3.2 0.00 2.16 1.37 86 1011.1
20260506235507 7 212 0.0 3.2 0.00 2.16 1.37 87 1011.0
20260506235012 7 207 0.0 3.2 0.00 2.16 1.37 87 1010.9
20260506234542 7 227 0.0 3.2 0.00 2.16 1.37 87 1010.9
20260506234014 7 227 0.0 3.2 0.00 2.16 1.37 86 1010.9
20260506233504 7 292 0.0 3.2 0.00 2.16 1.37 86 1010.8
20260506233010 7 224 0.0 1.6 0.00 2.16 1.37 87 1010.8
20260506232502 7 234 0.0 4.8 0.00 2.16 1.37 86 1010.7
20260506232006 7 234 1.6 4.8 0.00 2.16 1.37 85 1010.3
20260506231520 7 238 1.6 3.2 0.00 2.16 1.37 87 1010.6
20260506231011 7 256 0.0 1.6 0.00 2.16 1.37 87 1010.6
20260506230507 7 325 0.0 0.0 0.00 2.16 1.37 86 1010.3
20260506230026 7 325 0.0 0.0 0.00 2.16 1.37 86 1010.0
20260506225508 7 325 0.0 0.0 0.00 2.16 1.37 86 1010.2
20260506225009 7 18 0.0 0.0 0.00 2.16 1.37 85 1010.0
20260506224530 7 18 0.0 0.0 0.00 2.16 1.37 84 1010.1
20260506224011 7 18 0.0 0.0 0.00 2.16 1.37 85 1010.3
20260506223506 7 18 0.0 0.0 0.00 2.16 1.37 84 1010.3
20260506223012 7 18 0.0 0.0 0.00 2.16 1.37 85 1010.5
20260506222507 7 352 0.0 0.0 0.00 2.16 1.37 85 1010.7
20260506222008 7 301 0.0 0.0 0.00 2.16 1.37 84 1010.5
20260506221521 7 296 0.0 4.8 0.00 2.16 1.37 84 1010.5
20260506221006 7 360 0.0 4.8 0.00 2.16 1.37 84 1010.5
20260506220508 7 294 0.0 3.2 0.00 2.16 1.37 84 1010.5
20260506220034 7 343 0.0 3.2 0.00 2.16 1.37 85 1010.5
20260506215509 7 343 0.0 4.8 0.00 2.16 1.37 83 1010.5
20260506215008 8 352 0.0 4.8 0.00 2.16 1.37 84 1010.5
20260506214527 8 351 0.0 6.4 0.00 2.16 1.37 84 1010.3
20260506214009 8 351 1.6 8.0 0.00 2.16 1.37 84 1010.3
20260506213512 8 336 3.2 8.0 0.00 2.16 1.37 83 1010.3
20260506213028 8 360 1.6 3.2 0.00 2.16 1.37 85 1010.2
20260506212510 8 342 1.6 3.2 0.00 2.16 1.37 85 1010.1
20260506212009 7 49 1.6 6.4 0.00 2.16 1.37 87 1010.1
20260506211527 7 352 1.6 8.0 0.00 2.16 1.37 87 1010.1
20260506211010 7 333 3.2 8.0 0.00 2.16 1.37 85 1010.2
20260506210510 7 261 0.0 4.8 0.00 2.16 1.37 87 1010.2
20260506210008 7 13 0.0 6.4 0.00 2.16 1.37 88 1010.3
20260506205513 7 352 0.0 6.4 0.00 2.16 1.37 87 1010.1
20260506205003 7 17 1.6 6.4 0.00 2.16 1.37 86 1010.0
20260506204527 7 281 3.2 4.8 0.00 2.16 1.37 87 1010.0
20260506204008 7 315 1.6 8.0 0.00 2.16 1.37 88 1009.9
20260506203510 7 335 1.6 8.0 0.00 2.16 1.37 1009.8
20260506203020 7 5 3.2 6.4 0.00 2.16 1.37 89 1009.8
20260506202509 7 351 1.6 4.8 0.00 2.16 1.37 89 1009.7
20260506202009 7 9 3.2 4.8 0.00 2.16 1.37 91 1009.7
20260506201524 7 352 1.6 4.8 0.00 2.16 1.37 90 1009.7
20260506201009 7 336 0.0 4.8 0.00 2.16 1.37 91 1009.6
20260506200508 7 352 1.6 4.8 0.00 2.16 1.37 91 1009.6
20260506200026 7 338 0.0 4.8 0.00 2.16 1.37 91 1009.7
20260506195503 7 340 0.0 4.8 0.00 2.16 1.37 90 1009.7
20260506195009 7 334 1.6 6.4 0.00 2.16 1.37 90 1009.8
20260506194534 7 351 0.0 6.4 0.00 2.16 1.37 91 1009.9
20260506194013 7 5 3.2 8.0 0.00 2.16 1.37 91 1009.8
20260506193506 7 338 1.6 8.0 0.00 2.16 1.37 91 1009.9
20260506193022 7 312 3.2 6.4 0.00 2.16 1.37 92 1009.8
20260506192510 7 340 3.2 9.7 0.00 2.16 1.37 92 1009.7
20260506192011 7 309 1.6 9.7 0.00 2.16 1.37 92 1009.6
20260506191527 7 340 1.6 11.3 0.00 2.16 1.37 92 1009.5
20260506191007 7 331 4.8 11.3 0.00 2.16 1.37 91 1009.5
20260506190505 7 360 3.2 9.7 0.00 2.16 1.37 91 1009.5
20260506190012 7 298 1.6 8.0 0.00 2.16 1.37 91 1009.4
20260506185504 7 351 1.6 6.4 0.00 2.16 1.37 91 1009.4
20260506185006 7 343 3.2 8.0 0.00 2.16 1.37 91 1009.4
20260506184524 7 352 3.2 11.3 0.00 2.16 1.37 91 1009.5
20260506184006 7 337 3.2 11.3 0.00 2.16 1.37 91 1009.5
20260506183511 7 341 3.2 4.8 0.00 2.16 1.37 91 1009.5
20260506183027 7 346 1.6 8.0 0.00 2.16 1.37 91 1009.5
20260506182507 7 360 0.0 8.0 0.00 2.16 1.37 91 1009.2
20260506182010 7 348 1.6 4.8 0.00 2.16 1.37 92 1009.2
20260506181525 7 288 1.6 9.7 0.00 2.16 1.37 92 1009.1
20260506181011 7 28 1.6 12.9 0.00 2.16 1.37 91 1009.0
20260506180504 7 330 3.2 12.9 0.00 2.16 1.37 92 1009.0
20260506180014 7 346 0.0 6.4 0.00 2.16 1.37 92 1008.8
20260506175509 7 360 3.2 4.8 0.00 2.16 1.37 93 1008.8
20260506175006 7 277 1.6 4.8 0.00 2.16 1.37 93 1008.7
20260506174529 7 345 1.6 3.2 0.00 2.16 1.37 93 1008.6
20260506174007 7 341 0.0 4.8 0.00 2.16 1.37 93 1008.7
20260506173507 7 5 0.0 4.8 0.00 2.16 1.37 93 1008.7
20260506173024 7 338 0.0 8.0 0.00 2.16 1.37 92 1008.7
20260506172509 7 321 1.6 8.0 0.00 2.16 1.37 92 1008.8
20260506172011 7 5 1.6 6.4 0.00 2.16 1.37 92 1008.7
20260506171527 7 273 1.6 4.8 0.00 2.16 1.37 93 1008.7
20260506171013 7 23 3.2 4.8 0.00 2.16 1.37 93 1008.5
20260506170508 7 333 0.0 4.8 0.00 2.16 1.37 93 1008.4
20260506170025 7 342 1.6 4.8 0.00 2.16 1.37 93 1008.4
20260506165506 7 22 1.6 4.8 0.00 2.16 1.37 93 1008.4
20260506165010 7 328 0.0 3.2 0.00 2.16 1.37 93 1008.4
20260506164531 7 360 1.6 4.8 0.00 2.16 1.37 93 1008.5
20260506164009 7 322 1.6 3.2 0.00 2.16 1.37 93 1008.4
20260506163508 7 342 1.6 4.8 0.00 2.16 1.37 93 1008.5
20260506163026 7 334 1.6 4.8 0.00 2.16 1.37 94 1008.5
20260506162509 7 348 0.0 3.2 0.00 2.16 1.37 94 1008.5
20260506162012 7 290 0.0 3.2 0.00 2.16 1.37 94 1008.5
20260506161526 7 309 0.0 4.8 0.00 2.16 1.37 94 1008.5
20260506161003 7 352 0.0 6.4 0.00 2.16 1.37 93 1008.6
20260506160509 7 316 1.6 6.4 0.00 2.16 1.37 94 1008.7
20260506160033 7 300 3.2 4.8 0.00 2.16 1.37 94 1008.8
20260506155511 7 290 1.6 4.8 0.00 2.16 1.37 94 1008.8
20260506155009 7 341 1.6 3.2 0.00 2.16 1.37 94 1008.7
20260506154525 7 342 1.6 3.2 0.00 2.16 1.37 94 1008.9
20260506154009 7 341 1.6 3.2 0.00 2.16 1.37 94 1009.0
20260506153510 7 338 0.0 3.2 0.00 2.16 1.37 94 1009.0
20260506153026 6 330 1.6 3.2 0.00 2.16 1.37 93 1009.0
20260506152514 7 326 1.6 3.2 0.00 2.16 1.37 94 1009.0
20260506152012 7 336 1.6 1.6 0.00 2.16 1.37 94 1009.0
20260506151528 7 336 0.0 3.2 0.00 2.16 1.37 94 1008.7
20260506151010 7 339 0.0 1.6 0.00 2.16 1.37 94 1008.8
20260506150506 7 336 0.0 0.0 0.00 2.16 1.37 94 1008.8
20260506150020 7 317 0.0 1.6 0.00 2.16 1.37 94 1008.4
20260506145510 7 317 0.0 3.2 0.03 2.16 1.37 94 1008.6
20260506145009 7 303 0.0 3.2 0.03 2.16 1.37 94 1008.4
20260506144531 7 296 0.0 0.0 0.03 2.16 1.37 94 1008.3
20260506144017 7 296 0.0 0.0 0.03 2.16 1.37 94 1008.2
20260506143512 7 298 0.0 3.2 0.05 2.16 1.37 94 1008.3
20260506143033 6 298 0.0 1.6 0.05 2.16 1.37 94 1008.2
20260506142510 6 317 0.0 1.6 0.05 2.16 1.37 94 1008.3
20260506142014 6 215 0.0 1.6 0.08 2.16 1.37 94 1008.4
20260506141528 6 215 0.0 3.2 0.08 2.16 1.37 95 1008.4
20260506141007 6 205 0.0 3.2 0.08 2.16 1.37 94 1008.4
20260506140512 6 321 0.0 3.2 0.10 2.16 1.37 94 1008.4
20260506140034 6 279 0.0 1.6 0.10 2.16 1.37 94 1008.5
20260506135507 6 320 0.0 3.2 0.10 2.13 1.32 94 1008.4
20260506135014 6 345 0.0 3.2 0.13 2.13 1.32 94 1008.6
20260506134526 6 352 0.0 3.2 0.13 2.13 1.32 94 1008.5
20260506134014 6 9 0.0 3.2 0.15 2.13 1.32 94 1008.5
20260506133512 6 10 0.0 1.6 0.15 2.11 1.32 94 1008.5
20260506133027 6 11 0.0 3.2 0.18 2.11 1.32 94 1008.6
20260506132513 6 352 0.0 3.2 0.20 2.11 1.32 94 1008.7
20260506132012 6 288 0.0 3.2 0.18 2.08 1.30 94 1008.7
20260506131538 6 340 0.0 3.2 0.20 2.08 1.30 94 1008.7
20260506131006 6 319 0.0 1.6 0.20 2.08 1.30 94 1008.8
20260506130507 6 328 0.0 0.0 0.18 2.06 1.27 94 1008.7
20260506130036 6 273 0.0 0.0 0.18 2.06 1.27 94 1008.8
20260506125508 6 331 0.0 0.0 0.15 2.03 1.24 94 1008.8
20260506125008 6 322 0.0 0.0 0.15 2.01 1.22 94 1008.7
20260506124525 6 322 0.0 0.0 0.15 2.01 1.22 94 1008.7
20260506124011 6 322 0.0 0.0 0.13 1.98 1.19 94 1008.8
20260506123510 6 322 0.0 3.2 0.13 1.96 1.17 94 1008.6
20260506123028 6 323 0.0 3.2 0.13 1.93 1.14 94 1008.7
20260506122508 6 340 0.0 0.0 0.15 1.91 1.12 94 1008.5
20260506122012 6 9 0.0 3.2 0.18 1.91 1.12 94 1008.5
20260506121522 6 9 0.0 3.2 0.18 1.88 1.09 94 1008.6
20260506121013 6 9 0.0 4.8 0.20 1.88 1.09 94 1008.4
20260506120511 6 51 0.0 4.8 0.23 1.88 1.09 94 1008.3
20260506120024 6 96 0.0 3.2 0.25 1.88 1.09 94 1008.3
20260506115503 6 5 0.0 3.2 0.28 1.88 1.09 94 1008.5
20260506115003 6 40 0.0 3.2 0.25 1.85 1.07 94 1008.4
20260506114511 6 54 0.0 3.2 0.28 1.85 1.07 94 1008.5
20260506114005 6 334 0.0 3.2 0.30 1.85 1.07 94 1008.8
20260506113504 6 50 0.0 3.2 0.28 1.83 1.04 94 1008.8
20260506113030 6 245 0.0 3.2 0.28 1.80 1.02 94 1008.6
20260506112507 6 27 0.0 3.2 0.23 1.75 0.97 94 1008.7
20260506112007 6 336 0.0 3.2 0.23 1.73 0.94 94 1008.7
20260506111524 6 352 0.0 3.2 0.25 1.70 0.91 94 1008.8
20260506111007 6 318 1.6 3.2 0.23 1.68 0.89 94 1009.0
20260506110508 6 350 0.0 3.2 0.23 1.65 0.86 94 1009.0
20260506110009 6 331 0.0 3.2 0.20 1.63 0.84 94 1009.0
20260506105504 6 360 1.6 3.2 0.18 1.60 0.81 94 1009.2
20260506105004 6 316 1.6 1.6 0.18 1.60 0.81 94 1009.2
20260506104512 6 5 0.0 1.6 0.15 1.57 0.79 94 1009.0
20260506104003 6 346 0.0 0.0 0.15 1.55 0.76 94 1009.0
20260506103507 6 13 0.0 1.6 0.15 1.55 0.76 94 1008.8
20260506103029 6 92 0.0 1.6 0.13 1.52 0.74 94 1008.6
20260506102508 6 20 0.0 0.0 0.15 1.52 0.74 94 1008.5
20260506102010 6 20 0.0 0.0 0.13 1.47 0.71 94 1008.5
20260506101524 6 314 0.0 0.0 0.08 1.45 0.66 94 1008.8
20260506101006 6 313 0.0 0.0 0.10 1.45 0.66 94 1008.7
20260506100506 6 83 0.0 3.2 0.08 1.42 0.64 94 1008.6
20260506100011 6 90 0.0 3.2 0.10 1.42 0.64 94 1008.4
20260506095507 6 98 1.6 3.2 0.10 1.42 0.64 94 1008.5
20260506095005 6 82 0.0 3.2 0.10 1.42 0.64 94 1008.3
20260506094518 6 115 0.0 6.4 0.13 1.42 0.64 94 1008.3
20260506094009 6 102 1.6 6.4 0.10 1.40 0.61 94 1008.3
20260506093507 6 111 0.0 3.2 0.10 1.40 0.61 94 1008.6
20260506093026 6 140 0.0 3.2 0.13 1.40 0.61 94 1008.7
20260506092510 6 141 0.0 1.6 0.10 1.37 0.58 94 1008.9
20260506092014 6 141 0.0 3.2 0.10 1.37 0.58 94 1009.3
20260506091527 6 141 0.0 3.2 0.13 1.37 0.58 94 1009.4
20260506091007 6 141 0.0 3.2 0.13 1.32 0.56 94 1009.5
20260506090504 6 56 0.0 4.8 0.13 1.32 0.56 94 1009.3
20260506090010 6 138 0.0 4.8 0.13 1.32 0.53 94 1009.3
20260506085506 6 166 0.0 1.6 0.18 1.32 0.53 94 1009.4
20260506085003 6 166 0.0 4.8 0.18 1.32 0.53 94 1009.4
20260506084518 6 167 0.0 4.8 0.15 1.30 0.51 94 1009.3
20260506084008 6 167 0.0 4.8 0.15 1.30 0.51 94 1009.4
20260506083508 6 105 0.0 3.2 0.15 1.30 0.51 94 1009.3
20260506083025 6 317 0.0 3.2 0.13 1.27 0.48 94 1009.3
20260506082513 6 24 0.0 4.8 0.13 1.27 0.48 94 1009.3
20260506082006 6 12 0.0 4.8 0.13 1.27 0.48 93 1009.3
20260506081530 6 115 3.2 4.8 0.10 1.24 0.46 93 1009.2
20260506081010 6 244 1.6 4.8 0.10 1.22 0.43 93 1009.4
20260506080503 6 322 1.6 4.8 0.10 1.22 0.43 93 1009.4
20260506073508 6 345 1.6 1.6 0.05 1.14 0.36 93 1009.6
20260506073024 6 309 0.0 1.6 0.05 1.14 0.36 93 1009.3
20260506072508 6 316 0.0 1.6 0.08 1.14 0.36 93 1009.3
20260506072011 6 316 0.0 3.2 0.08 1.14 0.36 92 1009.4
20260506071529 7 26 0.0 3.2 0.10 1.14 0.36 92 1009.1
20260506071011 7 276 0.0 3.2 0.10 1.12 0.33 92 1009.0
20260506070512 7 46 0.0 4.8 0.13 1.12 0.33 93 1009.1
20260506062513 8 38 0.0 6.4 0.13 1.07 0.28 94 1009.6
20260506062009 8 74 0.0 6.4 0.13 1.07 0.28 94 1009.4
20260506061528 8 98 1.6 3.2 0.10 1.04 0.25 94 1009.4
20260506061003 8 92 0.0 6.4 0.08 1.02 0.23 94 1009.4
20260506060510 8 114 1.6 6.4 0.05 0.99 0.20 94 1009.6
20260506051015 8 152 0.0 3.2 0.13 0.94 0.15 94 1010.4
20260506050505 8 234 0.0 3.2 0.13 0.94 0.15 94 1010.4
20260506045007 8 302 0.0 3.2 0.15 0.94 0.15 94 1010.5
20260506044523 8 244 0.0 3.2 0.18 0.94 0.15 94 1010.6
20260506044010 8 248 0.0 3.2 0.20 0.91 0.13 94 1010.8
20260506043509 8 279 0.0 3.2 0.23 0.91 0.13 94 1010.4
20260506043029 8 262 1.6 3.2 0.20 0.89 0.10 94 1011.0
20260506042507 8 304 0.0 3.2 0.18 0.84 0.05 93 1010.3
20260506042012 8 304 0.0 3.2 0.18 0.84 0.05 93 1010.4
20260506041528 8 84 1.6 3.2 0.18 0.81 0.03 93 1009.8
20260506041006 8 154 0.0 0.0 0.20 0.81 0.03 93 1010.4
20260506040506 8 154 0.0 0.0 0.20 0.81 0.03 93 1010.6
20260506040022 8 154 0.0 3.2 0.18 0.79 0.00 93 1010.4
20260506035512 8 130 0.0 3.2 0.20 0.79 0.79 93 1010.3
20260506035011 8 103 0.0 3.2 0.23 0.79 0.79 93 1010.1
20260506034528 8 100 0.0 3.2 0.20 0.76 0.76 93 1010.4
20260506034009 8 98 0.0 1.6 0.15 0.71 0.71 93 1010.8
20260506033510 8 109 1.6 3.2 0.15 0.69 0.69 93 1010.4
20260506033029 8 134 1.6 3.2 0.15 0.69 0.69 93 1010.2
20260506032510 8 136 0.0 3.2 0.15 0.66 0.66 93 1010.2
20260506032012 8 136 0.0 3.2 0.15 0.66 0.66 93 1010.0
20260506031518 8 136 0.0 3.2 0.15 0.64 0.64 93 1010.2
20260506031007 8 214 0.0 3.2 0.15 0.61 0.61 93 1010.6
20260506030511 8 214 0.0 3.2 0.15 0.61 0.61 93 1010.5
20260506030029 8 214 0.0 0.0 0.18 0.61 0.61 93 1010.9
20260506025508 8 214 0.0 1.6 0.15 0.58 0.58 93 1010.8
20260506025009 8 214 0.0 1.6 0.15 0.56 0.56 93 1011.2
20260506024541 8 214 0.0 3.2 0.20 0.56 0.56 93 1011.1
20260506024012 8 214 0.0 3.2 0.20 0.56 0.56 92 1010.9
20260506023510 8 214 0.0 3.2 0.20 0.53 0.53 92 1010.8
20260506023030 8 212 0.0 0.0 0.23 0.53 0.53 92 1010.4
20260506022513 8 212 0.0 0.0 0.23 0.51 0.51 92 1011.1
20260506022010 8 212 0.0 0.0 0.25 0.51 0.51 92 1011.3
20260506021518 8 212 0.0 0.0 0.25 0.48 0.48 92 1010.8
20260506021011 8 212 0.0 0.0 0.25 0.46 0.46 92 1010.9
20260506020508 8 166 0.0 0.0 0.28 0.46 0.46 92 1010.6
20260506020029 8 166 0.0 0.0 0.28 0.43 0.43 92 1010.6
20260506015509 8 166 0.0 0.0 0.28 0.43 0.43 92 1010.7
20260506015009 8 166 0.0 0.0 0.25 0.41 0.41 92 1010.4
20260506014529 8 166 0.0 0.0 0.20 0.36 0.36 91 1010.3
20260506014009 8 166 0.0 0.0 0.23 0.36 0.36 91 1010.6
20260506013511 8 166 0.0 0.0 0.20 0.33 0.33 91 1010.4
20260506013034 8 167 0.0 1.6 0.20 0.30 0.30 91 1010.4
20260506012510 8 166 0.0 3.2 0.20 0.28 0.28 91 1010.4
20260506012006 8 110 0.0 3.2 0.18 0.25 0.25 91 1010.2
20260506011526 8 315 0.0 0.0 0.18 0.23 0.23 90 1010.3
20260506011011 8 219 0.0 0.0 0.15 0.20 0.20 90 1010.5
20260506010508 8 148 0.0 0.0 0.18 0.18 0.18 90 1010.2
20260506010030 8 169 0.0 0.0 0.15 0.15 0.15 90 1010.2
20260506005509 8 187 0.0 1.6 0.15 0.15 0.15 89 1010.4
20260506005007 8 187 0.0 1.6 0.15 0.15 0.15 89 1010.2
20260506004526 8 279 0.0 3.2 0.15 0.15 0.15 89 1010.2
20260506004006 8 278 0.0 3.2 0.13 0.13 0.13 1010.3
20260506003503 8 207 0.0 3.2 0.13 0.13 0.13 1010.4
20260506003018 8 207 1.6 3.2 0.10 0.10 0.10 1010.4
20260506002506 9 248 0.0 6.4 0.08 0.08 0.08 84 1010.4
20260506002010 9 318 0.0 6.4 0.08 0.08 0.08 84 1009.8
20260506001527 10 10 1.6 9.7 0.05 0.05 0.05 83 1009.7